Location: Capannuccia
(43.7000°N, 11.3000°E)
Time: 04:15:24
(UTC+00:00)

STARLINK-2651 - Visible Passes

Search period start: 05 December 2021 00:00
Search period end: 15 December 2021 00:00
Orbit: 546 x 548 km, 53.1° (Epoch: 04 December)

Date Brightness Start Highest point End Pass type
(mag) Time Alt. Az. Time Alt. Az. Time Alt. Az.
05 Dec 5.2 17:12:05 10° WNW 17:15:24 23° N 17:16:37 20° NNE visible
06 Dec 5.2 17:05:59 10° NW 17:09:15 22° N 17:10:34 19° NNE visible
06 Dec 6.6 18:46:01 10° NW 18:46:10 11° NW 18:46:10 11° NW visible
07 Dec 5.2 16:59:51 10° NW 17:03:06 22° N 17:04:33 18° NNE visible
07 Dec 6.5 18:39:41 10° NW 18:40:09 13° NW 18:40:09 13° NW visible
08 Dec 5.2 16:53:41 10° NW 16:56:58 22° N 16:58:33 18° NE visible
08 Dec 6.3 18:33:22 10° NW 18:34:09 15° NW 18:34:09 15° NW visible
09 Dec 5.1 16:47:29 10° NW 16:50:49 23° N 16:52:36 17° NE visible
09 Dec 6.0 18:27:02 10° NW 18:28:12 18° NW 18:28:12 18° NW visible
10 Dec 5.0 16:41:15 10° NW 16:44:40 24° N 16:46:43 17° NE visible
10 Dec 5.7 18:20:42 10° NW 18:22:19 22° NW 18:22:19 22° NW visible
11 Dec 4.8 16:34:58 10° NW 16:38:29 26° NNE 16:40:54 16° ENE visible
11 Dec 5.2 18:14:22 10° NW 18:16:32 30° NW 18:16:32 30° NW visible
12 Dec 4.7 16:28:41 10° NW 16:32:18 29° NNE 16:35:14 14° ENE visible
12 Dec 4.7 18:08:04 10° NW 18:10:51 41° WNW 18:10:51 41° WNW visible
13 Dec 4.5 16:22:21 10° NW 16:26:07 32° NNE 16:29:42 11° E visible
13 Dec 4.1 18:01:47 10° WNW 18:05:21 58° W 18:05:21 58° W visible
14 Dec 4.2 16:16:02 10° NW 16:19:54 37° NNE 16:23:46 10° E visible
14 Dec 4.3 17:55:32 10° WNW 17:59:31 49° SW 18:00:03 46° SSW visible
